| time (UTC) | temp F | wind direction | speed knots | gust knots | rain 1hr in | rain 24hr in | rain mn in | humidity % | barometer mb |
| 20260505111804 | 60 | 0 | 0.0 | 0.0 | 0.00 | 0.00 | 0.00 | 83 | 1014.2 |
| 20260505111557 | 59 | 0 | 0.0 | 0.0 | 0.00 | 0.00 | 0.00 | 85 | 1014.1 |
| 20260505110804 | 60 | 0 | 0.0 | 0.0 | 0.00 | 0.00 | 0.00 | 83 | 1014.2 |
| 20260505110304 | 60 | 0 | 0.0 | 0.0 | 0.00 | 0.00 | 0.00 | 83 | 1013.9 |
| 20260505101805 | 61 | 0 | 0.0 | 0.9 | 0.00 | 0.00 | 0.00 | 81 | 1013.9 |
| 20260505101558 | 60 | 0 | 0.0 | 0.0 | 0.00 | 0.00 | 0.00 | 81 | 1013.9 |
| 20260505101304 | 61 | 0 | 0.0 | 0.9 | 0.00 | 0.00 | 0.00 | 81 | 1013.5 |
| 20260505100804 | 61 | 0 | 0.0 | 1.7 | 0.00 | 0.00 | 0.00 | 81 | 1013.5 |
| 20260505100304 | 62 | 0 | 0.0 | 1.7 | 0.00 | 0.00 | 0.00 | 84 | 1013.9 |
| 20260505100100 | 61 | 0 | 0.0 | 0.9 | 0.00 | 0.00 | 0.00 | 81 | 1013.6 |
| 20260505095803 | 62 | 0 | 0.0 | 1.7 | 0.00 | 0.00 | 0.00 | 84 | 1013.9 |
| 20260505095305 | 62 | 0 | 0.0 | 1.7 | 0.00 | 0.00 | 0.00 | 84 | 1013.9 |
| 20260505094558 | 61 | 0 | 0.0 | 1.7 | 0.00 | 0.00 | 0.00 | 84 | 1013.8 |
| 20260505094304 | 62 | 0 | 0.0 | 0.0 | 0.00 | 0.00 | 0.00 | 85 | 1013.9 |
| 20260505093804 | 62 | 0 | 0.0 | 0.0 | 0.00 | 0.00 | 0.00 | 85 | 1013.9 |
| 20260505093056 | 61 | 0 | 0.0 | 0.0 | 0.00 | 0.00 | 0.00 | 85 | 1013.7 |
| 20260505092305 | 63 | 0 | 0.0 | 0.0 | 0.00 | 0.00 | 0.00 | 84 | 1013.5 |
| 20260505091804 | 64 | 0 | 0.0 | 0.0 | 0.00 | 0.00 | 0.00 | 82 | 1013.5 |
| 20260505091557 | 62 | 0 | 0.0 | 0.0 | 0.00 | 0.00 | 0.00 | 84 | 1013.4 |
| 20260505091304 | 64 | 0 | 0.0 | 0.0 | 0.00 | 0.00 | 0.00 | 82 | 1013.5 |
| 20260505090804 | 64 | 0 | 0.0 | 0.0 | 0.00 | 0.00 | 0.00 | 82 | 1013.5 |
| 20260505090304 | 64 | 0 | 0.0 | 0.0 | 0.00 | 0.00 | 0.00 | 82 | 1013.5 |
| 20260505090105 | 63 | 0 | 0.0 | 0.0 | 0.00 | 0.00 | 0.00 | 82 | 1013.4 |
| 20260505085804 | 63 | 0 | 0.0 | 0.0 | 0.00 | 0.00 | 0.00 | 83 | 1013.2 |
| 20260505085305 | 63 | 0 | 0.0 | 0.0 | 0.00 | 0.00 | 0.00 | 83 | 1013.2 |
| 20260505084804 | 63 | 0 | 0.0 | 0.0 | 0.00 | 0.00 | 0.00 | 83 | 1013.2 |
| 20260505084555 | 63 | 0 | 0.0 | 0.0 | 0.00 | 0.00 | 0.00 | 83 | 1013.2 |
| 20260505084304 | 63 | 0 | 0.0 | 0.0 | 0.00 | 0.00 | 0.00 | 83 | 1013.2 |
| 20260505083804 | 63 | 0 | 0.0 | 0.0 | 0.00 | 0.00 | 0.00 | 83 | 1013.2 |
| 20260505083304 | 63 | 0 | 0.0 | 0.0 | 0.00 | 0.00 | 0.00 | 83 | 1013.2 |
| 20260505083102 | 62 | 0 | 0.0 | 0.0 | 0.00 | 0.00 | 0.00 | 83 | 1013.1 |
| 20260505082305 | 63 | 0 | 0.0 | 0.9 | 0.00 | 0.00 | 0.00 | 83 | 1013.2 |
| 20260505081804 | 64 | 0 | 0.0 | 0.9 | 0.00 | 0.00 | 0.00 | 81 | 1013.2 |
| 20260505081557 | 63 | 0 | 0.0 | 0.0 | 0.00 | 0.00 | 0.00 | 83 | 1013.1 |
| 20260505081305 | 64 | 0 | 0.0 | 0.9 | 0.00 | 0.00 | 0.00 | 81 | 1013.2 |
| 20260505080804 | 64 | 0 | 0.0 | 0.9 | 0.00 | 0.00 | 0.00 | 81 | 1013.2 |
| 20260505080304 | 64 | 0 | 0.0 | 0.9 | 0.00 | 0.00 | 0.00 | 78 | 1013.5 |
| 20260505080058 | 63 | 0 | 0.0 | 0.9 | 0.00 | 0.00 | 0.00 | 81 | 1013.3 |
| 20260505075804 | 64 | 0 | 0.0 | 0.9 | 0.00 | 0.00 | 0.00 | 78 | 1013.5 |
| 20260505075304 | 64 | 0 | 0.0 | 0.9 | 0.00 | 0.00 | 0.00 | 78 | 1013.5 |
| 20260505074804 | 64 | 0 | 0.0 | 0.9 | 0.00 | 0.00 | 0.00 | 77 | 1013.4 |
| 20260505074555 | 64 | 0 | 0.0 | 0.9 | 0.00 | 0.00 | 0.00 | 78 | 1013.4 |
| 20260505074305 | 65 | 0 | 0.0 | 0.9 | 0.00 | 0.00 | 0.00 | 76 | 1013.2 |
| 20260505073804 | 65 | 0 | 0.0 | 0.9 | 0.00 | 0.00 | 0.00 | 76 | 1013.2 |
| 20260505073304 | 65 | 0 | 0.0 | 0.9 | 0.00 | 0.00 | 0.00 | 76 | 1013.2 |
| 20260505073059 | 65 | 0 | 0.0 | 0.9 | 0.00 | 0.00 | 0.00 | 76 | 1013.3 |
| 20260505072804 | 66 | 0 | 0.0 | 0.0 | 0.00 | 0.00 | 0.00 | 72 | 1013.5 |
| 20260505072305 | 66 | 0 | 0.0 | 0.0 | 0.00 | 0.00 | 0.00 | 72 | 1013.5 |
| 20260505071804 | 66 | 0 | 0.0 | 0.0 | 0.00 | 0.00 | 0.00 | 73 | 1013.5 |
| 20260505071556 | 66 | 0 | 0.0 | 0.0 | 0.00 | 0.00 | 0.00 | 72 | 1013.5 |
| 20260505070305 | 67 | 295 | 0.0 | 1.7 | 0.00 | 0.00 | 0.00 | 73 | 1013.9 |
| 20260505070055 | 66 | 0 | 0.0 | 0.0 | 0.00 | 0.00 | 0.00 | 73 | 1013.6 |
| 20260505065304 | 67 | 295 | 0.0 | 2.6 | 0.00 | 0.00 | 0.00 | 73 | 1013.9 |
| 20260505064804 | 69 | 238 | 0.9 | 2.6 | 0.00 | 0.00 | 0.00 | 66 | 1014.2 |
| 20260505064558 | 67 | 295 | 0.9 | 1.7 | 0.00 | 0.00 | 0.00 | 73 | 1013.9 |
| 20260505063804 | 69 | 238 | 0.9 | 2.6 | 0.00 | 0.00 | 0.00 | 66 | 1014.2 |
| 20260505063304 | 69 | 243 | 1.7 | 5.2 | 0.00 | 0.00 | 0.00 | 65 | 1014.2 |
| 20260505063056 | 68 | 238 | 0.9 | 2.6 | 0.00 | 0.00 | 0.00 | 66 | 1014.1 |
| 20260505062804 | 69 | 244 | 1.7 | 5.2 | 0.00 | 0.00 | 0.00 | 65 | 1014.2 |
| 20260505062304 | 69 | 244 | 1.7 | 5.2 | 0.00 | 0.00 | 0.00 | 65 | 1014.2 |
| 20260505061804 | 69 | 244 | 2.6 | 5.2 | 0.00 | 0.00 | 0.00 | 65 | 1014.2 |
| 20260505061602 | 69 | 244 | 1.7 | 5.2 | 0.00 | 0.00 | 0.00 | 65 | 1014.2 |
| 20260505061303 | 69 | 227 | 2.6 | 5.2 | 0.00 | 0.00 | 0.00 | 65 | 1014.2 |
| 20260505060803 | 69 | 227 | 2.6 | 6.1 | 0.00 | 0.00 | 0.00 | 65 | 1014.2 |
| 20260505060305 | 69 | 225 | 1.7 | 6.1 | 0.00 | 0.00 | 0.00 | 64 | 1014.6 |
| 20260505060059 | 69 | 227 | 3.5 | 5.2 | 0.00 | 0.00 | 0.00 | 65 | 1014.3 |
| 20260505055804 | 69 | 225 | 1.7 | 6.1 | 0.00 | 0.00 | 0.00 | 64 | 1014.6 |
| 20260505055304 | 69 | 225 | 1.7 | 6.1 | 0.00 | 0.00 | 0.00 | 64 | 1014.6 |
| 20260505054804 | 69 | 177 | 2.6 | 6.1 | 0.00 | 0.00 | 0.00 | 65 | 1014.9 |
| 20260505054559 | 69 | 225 | 3.5 | 6.1 | 0.00 | 0.00 | 0.00 | 64 | 1014.5 |
| 20260505054304 | 69 | 177 | 2.6 | 6.1 | 0.00 | 0.00 | 0.00 | 65 | 1014.9 |
| 20260505053804 | 69 | 177 | 2.6 | 6.1 | 0.00 | 0.00 | 0.00 | 65 | 1014.9 |
| 20260505053304 | 69 | 211 | 2.6 | 5.2 | 0.00 | 0.00 | 0.00 | 65 | 1014.6 |
| 20260505053106 | 69 | 177 | 4.3 | 6.1 | 0.00 | 0.00 | 0.00 | 65 | 1014.7 |
| 20260505052804 | 69 | 211 | 2.6 | 5.2 | 0.00 | 0.00 | 0.00 | 65 | 1014.6 |
| 20260505051557 | 68 | 211 | 1.7 | 5.2 | 0.00 | 0.00 | 0.00 | 65 | 1014.6 |
| 20260505051304 | 69 | 218 | 1.7 | 2.6 | 0.00 | 0.00 | 0.00 | 67 | 1014.6 |
| 20260505050304 | 68 | 215 | 2.6 | 2.6 | 0.00 | 0.00 | 0.00 | 68 | 1014.6 |
| 20260505041554 | 69 | 200 | 2.6 | 4.3 | 0.00 | 0.00 | 0.00 | 66 | 1014.9 |
| 20260505040804 | 69 | 253 | 1.7 | 5.2 | 0.00 | 0.00 | 0.00 | 66 | 1014.9 |
| 20260505040305 | 70 | 234 | 1.7 | 5.2 | 0.00 | 0.00 | 0.00 | 66 | 1014.9 |
| 20260505040057 | 69 | 253 | 0.9 | 5.2 | 0.00 | 0.00 | 0.00 | 66 | 1015.0 |
| 20260505035804 | 70 | 234 | 1.7 | 5.2 | 0.00 | 0.00 | 0.00 | 66 | 1014.9 |
| 20260505035304 | 70 | 234 | 1.7 | 5.2 | 0.00 | 0.00 | 0.00 | 66 | 1014.9 |
| 20260505034557 | 69 | 234 | 2.6 | 5.2 | 0.00 | 0.00 | 0.00 | 66 | 1014.9 |
| 20260505034304 | 69 | 208 | 2.6 | 5.2 | 0.00 | 0.00 | 0.00 | 65 | 1014.9 |
| 20260505033804 | 69 | 208 | 2.6 | 5.2 | 0.00 | 0.00 | 0.00 | 65 | 1014.9 |
| 20260505033304 | 69 | 208 | 2.6 | 5.2 | 0.00 | 0.00 | 0.00 | 65 | 1014.9 |
| 20260505033114 | 69 | 208 | 2.6 | 5.2 | 0.00 | 0.00 | 0.00 | 65 | 1014.7 |
| 20260505032804 | 70 | 235 | 2.6 | 5.2 | 0.00 | 0.00 | 0.00 | 67 | 1014.9 |
| 20260505032305 | 70 | 235 | 2.6 | 5.2 | 0.00 | 0.00 | 0.00 | 67 | 1014.9 |
| 20260505031804 | 69 | 209 | 2.6 | 4.3 | 0.00 | 0.00 | 0.00 | 66 | 1014.9 |
| 20260505031556 | 69 | 235 | 3.5 | 5.2 | 0.00 | 0.00 | 0.00 | 67 | 1015.0 |
| 20260505031304 | 69 | 209 | 2.6 | 4.3 | 0.00 | 0.00 | 0.00 | 66 | 1014.9 |
| 20260505030304 | 70 | 206 | 2.6 | 7.0 | 0.00 | 0.00 | 0.00 | 67 | 1014.9 |
| 20260505030105 | 69 | 209 | 1.7 | 4.3 | 0.00 | 0.00 | 0.00 | 66 | 1014.8 |
| 20260505024601 | 70 | 206 | 2.6 | 7.0 | 0.00 | 0.00 | 0.00 | 67 | 1014.7 |
| 20260505024304 | 70 | 200 | 2.6 | 5.2 | 0.00 | 0.00 | 0.00 | 67 | 1014.6 |
| 20260505023804 | 70 | 200 | 2.6 | 5.2 | 0.00 | 0.00 | 0.00 | 67 | 1014.6 |
| 20260505023304 | 70 | 218 | 7.0 | 7.0 | 0.00 | 0.00 | 0.00 | 65 | 1014.9 |
| 20260505023107 | 70 | 200 | 3.5 | 5.2 | 0.00 | 0.00 | 0.00 | 67 | 1014.6 |
| 20260505022304 | 70 | 219 | 7.0 | 7.0 | 0.00 | 0.00 | 0.00 | 65 | 1014.9 |
| 20260505021804 | 70 | 219 | 4.3 | 7.0 | 0.00 | 0.00 | 0.00 | 65 | 1014.9 |
| 20260505021557 | 70 | 219 | 4.3 | 7.0 | 0.00 | 0.00 | 0.00 | 65 | 1014.7 |
| 20260505021304 | 70 | 201 | 1.7 | 6.1 | 0.00 | 0.00 | 0.00 | 67 | 1014.9 |
| 20260505020304 | 70 | 176 | 2.6 | 7.0 | 0.00 | 0.00 | 0.00 | 64 | 1014.9 |
| 20260505020056 | 70 | 201 | 3.5 | 6.1 | 0.00 | 0.00 | 0.00 | 67 | 1014.7 |
| 20260505015804 | 70 | 176 | 2.6 | 7.0 | 0.00 | 0.00 | 0.00 | 64 | 1014.9 |
| 20260505015304 | 70 | 176 | 2.6 | 7.0 | 0.00 | 0.00 | 0.00 | 64 | 1014.9 |
| 20260505014804 | 70 | 182 | 2.6 | 7.0 | 0.00 | 0.00 | 0.00 | 65 | 1015.2 |
| 20260505014557 | 70 | 176 | 3.5 | 7.0 | 0.00 | 0.00 | 0.00 | 64 | 1014.8 |
| 20260505014304 | 70 | 182 | 2.6 | 7.0 | 0.00 | 0.00 | 0.00 | 65 | 1015.2 |
| 20260505013804 | 70 | 182 | 2.6 | 7.0 | 0.00 | 0.00 | 0.00 | 65 | 1015.2 |
| 20260505013304 | 70 | 208 | 1.7 | 5.2 | 0.00 | 0.00 | 0.00 | 63 | 1015.2 |
| 20260505013055 | 70 | 182 | 3.5 | 7.0 | 0.00 | 0.00 | 0.00 | 65 | 1015.0 |
| 20260505012304 | 70 | 208 | 1.7 | 7.0 | 0.00 | 0.00 | 0.00 | 63 | 1015.2 |
| 20260505011804 | 70 | 236 | 2.6 | 7.0 | 0.00 | 0.00 | 0.00 | 64 | 1015.2 |
| 20260505011601 | 70 | 208 | 3.5 | 5.2 | 0.00 | 0.00 | 0.00 | 63 | 1015.2 |
| 20260505011304 | 70 | 236 | 2.6 | 7.0 | 0.00 | 0.00 | 0.00 | 64 | 1015.2 |
| 20260505010804 | 70 | 236 | 2.6 | 7.0 | 0.00 | 0.00 | 0.00 | 64 | 1015.2 |
| 20260505010304 | 71 | 228 | 2.6 | 5.2 | 0.00 | 0.00 | 0.00 | 63 | 1015.2 |
| 20260505005804 | 71 | 228 | 2.6 | 5.2 | 0.00 | 0.00 | 0.00 | 63 | 1015.2 |
| 20260505005304 | 71 | 228 | 2.6 | 5.2 | 0.00 | 0.00 | 0.00 | 63 | 1015.2 |
| 20260505004804 | 71 | 218 | 0.9 | 5.2 | 0.00 | 0.00 | 0.00 | 59 | 1015.2 |
| 20260505004559 | 70 | 228 | 1.7 | 5.2 | 0.00 | 0.00 | 0.00 | 63 | 1015.2 |
| 20260505004303 | 71 | 218 | 0.9 | 5.2 | 0.00 | 0.00 | 0.00 | 59 | 1015.2 |
| 20260505003804 | 71 | 218 | 0.9 | 8.7 | 0.00 | 0.00 | 0.00 | 59 | 1015.2 |
| 20260505003304 | 71 | 206 | 7.8 | 8.7 | 0.00 | 0.00 | 0.00 | 59 | 1015.2 |
| 20260505003057 | 71 | 218 | 2.6 | 5.2 | 0.00 | 0.00 | 0.00 | 59 | 1015.1 |
| 20260505002304 | 71 | 206 | 7.8 | 8.7 | 0.00 | 0.00 | 0.00 | 59 | 1015.2 |
| 20260505001803 | 71 | 208 | 5.2 | 10.4 | 0.00 | 0.00 | 0.00 | 59 | 1015.2 |
| 20260505001554 | 71 | 206 | 4.3 | 8.7 | 0.00 | 0.00 | 0.00 | 59 | 1015.1 |
| 20260505001304 | 72 | 231 | 4.3 | 10.4 | 0.00 | 0.00 | 0.00 | 58 | 1015.2 |
| 20260505000805 | 72 | 231 | 4.3 | 10.4 | 0.00 | 0.00 | 0.00 | 58 | 1015.2 |
| 20260505000305 | 72 | 231 | 4.3 | 10.4 | 0.00 | 0.00 | 0.00 | 58 | 1015.2 |
| 20260505000101 | 71 | 231 | 6.1 | 9.6 | 0.00 | 0.00 | 0.00 | 58 | 1015.2 |
| 20260504235804 | 72 | 212 | 6.1 | 8.7 | 0.00 | 0.00 | 0.00 | 59 | 1015.6 |
| 20260504234804 | 73 | 186 | 4.3 | 8.7 | 0.00 | 0.00 | 0.00 | 54 | 1015.2 |
| 20260504234619 | 72 | 212 | 4.3 | 8.7 | 0.00 | 0.00 | 0.00 | 59 | 1015.4 |
| 20260504234304 | 73 | 186 | 4.3 | 8.7 | 0.00 | 0.00 | 0.00 | 54 | 1015.2 |
| 20260504233304 | 74 | 166 | 2.6 | 8.7 | 0.00 | 0.00 | 0.00 | 53 | 1015.2 |
| 20260504233056 | 73 | 186 | 5.2 | 8.7 | 0.00 | 0.00 | 0.00 | 54 | 1015.3 |
| 20260504232804 | 74 | 166 | 2.6 | 8.7 | 0.00 | 0.00 | 0.00 | 53 | 1015.2 |
| 20260504232305 | 74 | 166 | 2.6 | 8.7 | 0.00 | 0.00 | 0.00 | 53 | 1015.2 |
| 20260504231804 | 74 | 214 | 5.2 | 8.7 | 0.00 | 0.00 | 0.00 | 55 | 1015.6 |
| 20260504231605 | 73 | 166 | 4.3 | 8.7 | 0.00 | 0.00 | 0.00 | 53 | 1015.3 |
| 20260504231304 | 74 | 214 | 5.2 | 8.7 | 0.00 | 0.00 | 0.00 | 55 | 1015.6 |
| 20260504230100 | 74 | 214 | 3.5 | 8.7 | 0.00 | 0.00 | 0.00 | 55 | 1015.5 |
| 20260504225804 | 74 | 241 | 7.8 | 11.3 | 0.00 | 0.00 | 0.00 | 53 | 1015.2 |
| 20260504225304 | 74 | 241 | 7.8 | 11.3 | 0.00 | 0.00 | 0.00 | 53 | 1015.2 |
| 20260504224804 | 74 | 241 | 7.0 | 12.2 | 0.00 | 0.00 | 0.00 | 53 | 1015.2 |
| 20260504224605 | 73 | 241 | 4.3 | 11.3 | 0.00 | 0.00 | 0.00 | 53 | 1015.3 |
| 20260504223304 | 74 | 176 | 2.6 | 8.7 | 0.00 | 0.00 | 0.00 | 53 | 1015.6 |
| 20260504223056 | 74 | 127 | 5.2 | 12.2 | 0.00 | 0.00 | 0.00 | 54 | 1015.3 |
| 20260504222305 | 74 | 176 | 2.6 | 10.4 | 0.00 | 0.00 | 0.00 | 53 | 1015.6 |
| 20260504221804 | 74 | 218 | 7.8 | 10.4 | 0.00 | 0.00 | 0.00 | 50 | 1015.2 |
| 20260504221604 | 73 | 176 | 5.2 | 8.7 | 0.00 | 0.00 | 0.00 | 53 | 1015.5 |
| 20260504221304 | 74 | 218 | 7.8 | 10.4 | 0.00 | 0.00 | 0.00 | 50 | 1015.2 |
| 20260504220804 | 74 | 218 | 7.8 | 11.3 | 0.00 | 0.00 | 0.00 | 50 | 1015.2 |
| 20260504220304 | 74 | 229 | 7.8 | 11.3 | 0.00 | 0.00 | 0.00 | 50 | 1015.6 |
| 20260504220057 | 74 | 218 | 5.2 | 10.4 | 0.00 | 0.00 | 0.00 | 50 | 1015.3 |
| 20260504215804 | 74 | 229 | 7.8 | 11.3 | 0.00 | 0.00 | 0.00 | 50 | 1015.6 |
| 20260504215305 | 74 | 229 | 7.8 | 11.3 | 0.00 | 0.00 | 0.00 | 50 | 1015.6 |
| 20260504214804 | 74 | 182 | 7.8 | 10.4 | 0.00 | 0.00 | 0.00 | 52 | 1015.6 |
| 20260504214603 | 74 | 229 | 4.3 | 11.3 | 0.00 | 0.00 | 0.00 | 50 | 1015.4 |
| 20260504214304 | 74 | 182 | 7.8 | 10.4 | 0.00 | 0.00 | 0.00 | 52 | 1015.6 |
| 20260504213803 | 74 | 182 | 7.8 | 10.4 | 0.00 | 0.00 | 0.00 | 52 | 1015.6 |
| 20260504213304 | 74 | 202 | 6.1 | 10.4 | 0.00 | 0.00 | 0.00 | 49 | 1015.6 |
| 20260504213103 | 74 | 182 | 5.2 | 9.6 | 0.00 | 0.00 | 0.00 | 52 | 1015.4 |
| 20260504212804 | 74 | 207 | 6.1 | 10.4 | 0.00 | 0.00 | 0.00 | 48 | 1015.6 |
| 20260504212304 | 74 | 207 | 6.1 | 10.4 | 0.00 | 0.00 | 0.00 | 48 | 1015.6 |
| 20260504211803 | 74 | 205 | 5.2 | 10.4 | 0.00 | 0.00 | 0.00 | 48 | 1015.6 |
| 20260504211557 | 74 | 207 | 6.1 | 10.4 | 0.00 | 0.00 | 0.00 | 48 | 1015.7 |
| 20260504211304 | 74 | 174 | 5.2 | 8.7 | 0.00 | 0.00 | 0.00 | 48 | 1015.6 |
| 20260504210804 | 74 | 174 | 5.2 | 8.7 | 0.00 | 0.00 | 0.00 | 48 | 1015.6 |
| 20260504210304 | 74 | 174 | 5.2 | 10.4 | 0.00 | 0.00 | 0.00 | 48 | 1015.6 |
| 20260504210105 | 74 | 174 | 5.2 | 8.7 | 0.00 | 0.00 | 0.00 | 48 | 1015.6 |
| 20260504205804 | 73 | 132 | 5.2 | 10.4 | 0.00 | 0.00 | 0.00 | 53 | 1015.9 |
| 20260504205304 | 73 | 132 | 5.2 | 10.4 | 0.00 | 0.00 | 0.00 | 53 | 1015.9 |
| 20260504204804 | 74 | 171 | 6.1 | 8.7 | 0.00 | 0.00 | 0.00 | 51 | 1015.9 |
| 20260504204638 | 73 | 132 | 6.1 | 9.6 | 0.00 | 0.00 | 0.00 | 53 | 1015.8 |
| 20260504204304 | 74 | 171 | 6.1 | 8.7 | 0.00 | 0.00 | 0.00 | 51 | 1015.9 |
| 20260504203803 | 74 | 171 | 6.1 | 10.4 | 0.00 | 0.00 | 0.00 | 51 | 1015.9 |
| 20260504203304 | 74 | 142 | 2.6 | 10.4 | 0.00 | 0.00 | 0.00 | 51 | 1015.9 |
| 20260504203102 | 73 | 171 | 3.5 | 8.7 | 0.00 | 0.00 | 0.00 | 51 | 1015.8 |
| 20260504202804 | 74 | 142 | 2.6 | 10.4 | 0.00 | 0.00 | 0.00 | 51 | 1015.9 |
| 20260504202305 | 74 | 142 | 2.6 | 10.4 | 0.00 | 0.00 | 0.00 | 51 | 1015.9 |
| 20260504201803 | 74 | 108 | 2.6 | 10.4 | 0.00 | 0.00 | 0.00 | 49 | 1016.3 |
| 20260504201602 | 73 | 142 | 3.5 | 9.6 | 0.00 | 0.00 | 0.00 | 51 | 1015.9 |
| 20260504201304 | 74 | 108 | 2.6 | 10.4 | 0.00 | 0.00 | 0.00 | 49 | 1016.3 |
| 20260504200804 | 74 | 108 | 2.6 | 10.4 | 0.00 | 0.00 | 0.00 | 49 | 1016.3 |
| 20260504200304 | 73 | 121 | 4.3 | 10.4 | 0.00 | 0.00 | 0.00 | 48 | 1016.3 |
| 20260504195804 | 73 | 121 | 4.3 | 10.4 | 0.00 | 0.00 | 0.00 | 48 | 1016.3 |
| 20260504195304 | 73 | 121 | 4.3 | 10.4 | 0.00 | 0.00 | 0.00 | 48 | 1016.3 |
| 20260504194804 | 73 | 145 | 5.2 | 10.4 | 0.00 | 0.00 | 0.00 | 48 | 1016.4 |
| 20260504194558 | 73 | 121 | 6.1 | 9.6 | 0.00 | 0.00 | 0.00 | 48 | 1016.3 |
| 20260504194303 | 73 | 181 | 5.2 | 7.8 | 0.00 | 0.00 | 0.00 | 49 | 1016.6 |
| 20260504193804 | 73 | 181 | 5.2 | 7.8 | 0.00 | 0.00 | 0.00 | 49 | 1016.6 |
| 20260504193304 | 73 | 181 | 4.3 | 7.8 | 0.00 | 0.00 | 0.00 | 49 | 1016.6 |
| 20260504193059 | 72 | 181 | 6.1 | 7.8 | 0.00 | 0.00 | 0.00 | 49 | 1016.6 |
| 20260504192304 | 73 | 115 | 2.6 | 7.8 | 0.00 | 0.00 | 0.00 | 48 | 1016.6 |
| 20260504191804 | 73 | 115 | 2.6 | 7.8 | 0.00 | 0.00 | 0.00 | 48 | 1016.6 |
| 20260504191557 | 72 | 115 | 5.2 | 7.8 | 0.00 | 0.00 | 0.00 | 48 | 1016.7 |
| 20260504191304 | 73 | 119 | 2.6 | 7.0 | 0.00 | 0.00 | 0.00 | 46 | 1017.3 |
| 20260504190804 | 73 | 119 | 2.6 | 7.0 | 0.00 | 0.00 | 0.00 | 46 | 1017.3 |
| 20260504190304 | 73 | 119 | 2.6 | 7.0 | 0.00 | 0.00 | 0.00 | 46 | 1017.3 |
| 20260504190101 | 72 | 119 | 4.3 | 7.0 | 0.00 | 0.00 | 0.00 | 46 | 1017.2 |
| 20260504185803 | 73 | 127 | 2.6 | 7.0 | 0.00 | 0.00 | 0.00 | 47 | 1017.3 |
| 20260504185304 | 73 | 127 | 2.6 | 7.8 | 0.00 | 0.00 | 0.00 | 47 | 1017.3 |
| 20260504184804 | 73 | 165 | 1.7 | 7.8 | 0.00 | 0.00 | 0.00 | 48 | 1017.3 |
| 20260504184605 | 73 | 127 | 3.5 | 7.0 | 0.00 | 0.00 | 0.00 | 47 | 1017.2 |
| 20260504183804 | 73 | 165 | 1.7 | 7.8 | 0.00 | 0.00 | 0.00 | 48 | 1017.3 |
| 20260504183304 | 72 | 139 | 2.6 | 5.2 | 0.00 | 0.00 | 0.00 | 49 | 1017.3 |
| 20260504183100 | 73 | 165 | 2.6 | 7.8 | 0.00 | 0.00 | 0.00 | 48 | 1017.3 |
| 20260504182804 | 72 | 139 | 2.6 | 5.2 | 0.00 | 0.00 | 0.00 | 49 | 1017.3 |
| 20260504182304 | 72 | 139 | 2.6 | 7.0 | 0.00 | 0.00 | 0.00 | 49 | 1017.3 |
| 20260504181804 | 73 | 129 | 2.6 | 7.0 | 0.00 | 0.00 | 0.00 | 48 | 1017.6 |
| 20260504181557 | 72 | 139 | 2.6 | 5.2 | 0.00 | 0.00 | 0.00 | 49 | 1017.3 |
| 20260504180804 | 73 | 129 | 2.6 | 7.0 | 0.00 | 0.00 | 0.00 | 48 | 1017.6 |
| 20260504180304 | 72 | 146 | 5.2 | 5.2 | 0.00 | 0.00 | 0.00 | 47 | 1017.6 |
| 20260504180055 | 72 | 129 | 2.6 | 7.0 | 0.00 | 0.00 | 0.00 | 48 | 1017.4 |
| 20260504175803 | 72 | 146 | 5.2 | 5.2 | 0.00 | 0.00 | 0.00 | 47 | 1017.6 |
| 20260504175304 | 72 | 146 | 5.2 | 6.1 | 0.00 | 0.00 | 0.00 | 47 | 1017.6 |
| 20260504174804 | 72 | 120 | 4.3 | 6.1 | 0.00 | 0.00 | 0.00 | 52 | 1017.6 |
| 20260504174557 | 71 | 146 | 3.5 | 5.2 | 0.00 | 0.00 | 0.00 | 47 | 1017.5 |
| 20260504174304 | 72 | 120 | 4.3 | 6.1 | 0.00 | 0.00 | 0.00 | 52 | 1017.6 |
| 20260504173804 | 72 | 120 | 4.3 | 6.1 | 0.00 | 0.00 | 0.00 | 52 | 1017.6 |
| 20260504173304 | 72 | 113 | 3.5 | 6.1 | 0.00 | 0.00 | 0.00 | 51 | 1017.8 |
| 20260504173056 | 71 | 120 | 3.5 | 6.1 | 0.00 | 0.00 | 0.00 | 52 | 1017.6 |
| 20260504172804 | 72 | 102 | 2.6 | 6.1 | 0.00 | 0.00 | 0.00 | 50 | 1017.9 |
| 20260504172304 | 72 | 102 | 2.6 | 6.1 | 0.00 | 0.00 | 0.00 | 50 | 1017.9 |
| 20260504171804 | 72 | 102 | 3.5 | 7.0 | 0.00 | 0.00 | 0.00 | 50 | 1017.9 |
| 20260504171557 | 71 | 102 | 3.5 | 6.1 | 0.00 | 0.00 | 0.00 | 50 | 1018.0 |
| 20260504171304 | 72 | 107 | 4.3 | 7.0 | 0.00 | 0.00 | 0.00 | 49 | 1017.9 |
| 20260504170803 | 72 | 107 | 4.3 | 7.0 | 0.00 | 0.00 | 0.00 | 49 | 1017.9 |
| 20260504170303 | 72 | 107 | 4.3 | 7.0 | 0.00 | 0.00 | 0.00 | 49 | 1017.9 |
| 20260504160304 | 70 | 114 | 6.1 | 6.1 | 0.00 | 0.00 | 0.00 | 60 | 1018.6 |
| 20260504150804 | 69 | 95 | 2.6 | 4.3 | 0.00 | 0.00 | 0.00 | 65 | 1018.6 |
| 20260504150303 | 69 | 117 | 2.6 | 2.6 | 0.00 | 0.00 | 0.00 | 63 | 1018.6 |
| 20260504141304 | 68 | 62 | 2.6 | 0.0 | 0.00 | 0.00 | 0.00 | 67 | 1018.6 |
| 20260504140804 | 68 | 62 | 2.6 | 0.0 | 0.00 | 0.00 | 0.00 | 67 | 1018.6 |
| 20260504140304 | 68 | 0 | 0.0 | 0.0 | 0.00 | 0.00 | 0.00 | 66 | 1018.6 |
| 20260504130803 | 67 | 0 | 0.0 | 0.9 | 0.00 | 0.00 | 0.00 | 69 | 1018.3 |
| 20260504130304 | 65 | 0 | 0.0 | 0.0 | 0.00 | 0.00 | 0.00 | 74 | 1018.3 |
| 20260504120304 | 62 | 0 | 0.0 | 0.0 | 0.00 | 0.00 | 0.00 | 78 | 1017.6 |